This demonstration page uses our WeatherBlox Daily Observations layout. Learn more.

Left ArrowRight Arrow

Hourly Observations for February 15, 2017

Temp ( °F °C ) Dew Point ( °F °C ) Humidity (%) Winds ( mph kmh ) Pressure ( in mb ) Visibility ( mi km ) Precip ( " mm )
12:53 am 00:53 Clear 41 5 32 undefined 70 70 WSW 3 6 29.71 1006 10 16 N/A
1:53 am 01:53 Clear 41 5 32 undefined 70 70 W 5 7 29.70 1006 10 16 N/A
2:53 am 02:53 Clear 41 5 31 -0.6 67 67 W 6 9 29.70 1006 10 16 N/A
3:53 am 03:53 Partly Cloudy 40 4.4 30 -1.1 68 68 WNW 10 17 29.72 1006 10 16 N/A
4:53 am 04:53 Mostly Cloudy 39 3.9 30 -1.1 70 70 NW 13 20 29.72 1007 10 16 N/A
5:01 am 05:01 Cloudy 39 3.9 30 -1.1 70 70 NW 9 15 29.74 1007 10 16 N/A
5:25 am 05:25 Cloudy 38 3.3 30 -1.1 73 73 N 10 17 29.77 1008 10 16 N/A
5:53 am 05:53 Partly Cloudy 36 2.2 29 -1.7 76 76 NNW 8 13 29.74 1007 10 16 N/A
6:53 am 06:53 Partly Cloudy 35 1.7 23 -5 61 61 NNW 8 13 29.76 1008 10 16 N/A
7:53 am 07:53 Sunny 34 1.1 19 -7.2 54 54 NNW 9 15 29.79 1009 10 16 N/A
8:53 am 08:53 Sunny 35 1.7 20 -6.7 54 54 NW 9 15 29.81 1010 10 16 N/A
9:53 am 09:53 Sunny 37 2.8 19 -7.2 48 48 NNW 15 24 29.83 1010 10 16 N/A
10:53 am 10:53 Sunny 39 3.9 21 -6.1 48 48 NNW 16 26 29.85 1011 10 16 N/A
11:53 am 11:53 Partly Cloudy 39 3.9 21 -6.1 48 48 NNW 12 19 29.86 1011 10 16 N/A
12:53 pm 12:53 Mostly Cloudy 39 3.9 22 -5.6 50 50 NNW 13 20 29.85 1011 10 16 N/A
1:53 pm 13:53 Mostly Sunny 40 4.4 21 -6.1 47 47 NW 14 22 29.85 1011 10 16 N/A
2:53 pm 14:53 Mostly Sunny 42 5.6 21 -6.1 43 43 NW 15 24 29.83 1010 10 16 N/A
3:53 pm 15:53 Mostly Sunny 43 6.1 22 -5.6 43 43 WNW 16 26 29.84 1010 10 16 N/A
4:53 pm 16:53 Mostly Sunny 40 4.4 18 -7.8 41 41 NW 16 26 29.84 1011 10 16 N/A
5:53 pm 17:53 Sunny 39 3.9 18 -7.8 43 43 NW 10 17 29.85 1011 10 16 N/A
6:53 pm 18:53 Clear 36 2.2 19 -7.2 50 50 NNW 9 15 29.88 1012 10 16 N/A
7:53 pm 19:53 Clear 35 1.7 20 -6.7 54 54 NW 12 19 29.91 1013 10 16 N/A
8:53 pm 20:53 Clear 32 undefined 21 -6.1 64 64 NW 8 13 29.93 1013 10 16 N/A
9:53 pm 21:53 Clear 31 -0.6 20 -6.7 64 64 NW 9 15 29.94 1014 10 16 N/A
10:53 pm 22:53 Clear 28 -2.2 19 -7.2 69 69 NW 5 7 29.94 1014 10 16 N/A
11:53 pm 23:53 Clear 28 -2.2 19 -7.2 69 69 N N/A 29.94 1014 10 16 N/A

Powered by AerisWeather